Hourly Data Report for October 17, 2015

All times are specified in Local Standard Time (LST). Add 1 hour to adjust for Daylight Saving Time where and when it is observed.

WINNIPEG A CS
MANITOBA

49°55'00.000" N
97°14'58.000" W
238.70 m
502S001
71849
XWG

Download Data

Hourly Data (October 2015)
Hourly Data Report for October 17, 2015
Temp Definition
°C
Dew Point Temp Definition
°C
Rel Hum Definition
%
Wind Dir Definition
10's deg

Wind Spd Definition
km/h
Visibility Definition
km
Stn Press Definition
kPa
Hmdx Definition


Wind Chill Definition


Weather Definition


TIME
00:00 -3.8 -6.1 84 30 3   100.12   -5 LegendNANA
01:00 -4.8 -6.5 88 30 9   100.15   -9 LegendNANA
02:00 -6.3 -7.4 92 29 10   100.18   -11 LegendNANA
03:00 -6.8 -7.6 94 31 7   100.16   -10 LegendNANA
04:00 -6.3 -6.8 96 29 10   100.18   -11 LegendNANA
05:00 -7.6 -8.6 92 34 5   100.20   -10 LegendNANA
06:00 -8.1 -8.8 95 29 8   100.22   -12 LegendNANA
07:00 -8.1 -8.9 94 29 7   100.28   -12 LegendNANA
08:00 -5.1 -5.9 94 29 3   100.27   -6 LegendNANA
09:00 -0.6 -2.3 88 27 1   100.29   -1 LegendNANA
10:00 2.4 -0.3 82 3 1   100.30     LegendNANA
11:00 4.4 -0.9 68 8 4   100.24     LegendNANA
12:00 5.9 -2.4 55 13 5   100.19     LegendNANA
13:00 7.3 -1.3 54 16 7   100.04     LegendNANA
14:00 7.8 -3.1 46 15 9   99.99     LegendNANA
15:00 8.2 -4.6 40 12 7   99.93     LegendNANA
16:00 8.5 -4.8 38 16 7   99.87     LegendNANA
17:00 6.6 -4.0 47 17 11   99.83     LegendNANA
18:00 3.4 -4.3 57 14 11   99.81     LegendNANA
19:00 2.0 -4.0 64 14 13   99.76     LegendNANA
20:00 2.3 -4.1 63 15 14   99.72     LegendNANA
21:00 1.5 -3.9 68 17 15   99.62     LegendNANA
22:00 1.7 -4.7 63 14 12   99.61     LegendNANA
23:00 0.4 -4.4 70 15 16   99.57     LegendNANA

Notes on Data Quality.

Legend

  • E = Estimated
  • M = Missing
  • NA = Not Available
  • ‡ = Partner data that is not subject to review by the National Climate Archives
Date modified: